Lexington Weather

Lexington, Massachusetts, USA

27°F
12/12/2019 4:39pm 
  • Lexington Conditions: Partly cloudy
  • Temperature: 27.1°F / -2.7°CColder 1.8°F than last hour.
  • Dew Point: 19.6°FDecreased 0.5°Fsince last hour.
  • Relative Humidity: 73%Increased 4.0% since last hour.
  • Wind: Wind from WSW WSW 1 mph, 10-min avg: 1 mph, gust: 1 mph
  • Barometer: 30.66 in Steady
  • Visibility: 10 miles
  • Snow Today: 0.0 in
  •   

Regional Weather Roundup
for Boston / Norton, MA

        
000
ASUS41 KBOX 100210
RWRBOX

REGIONAL WEATHER ROUNDUP
NATIONAL WEATHER SERVICE BOSTON/NORTON MA
900 PM EST MON DEC 09 2019

NOTE:  "FAIR" INDICATES FEW OR NO CLOUDS BELOW 12,000 FEET WITH NO 
SIGNIFICANT WEATHER AND/OR OBSTRUCTIONS TO VISIBILITY.

MAZALL-100300-
EASTERN MASSACHUSETTS
  
CITY           SKY/WX    TMP DP  RH WIND       PRES   REMARKS
BOSTON         LGT RAIN  56  52  86 S12       29.75F                  
BEVERLY        LGT RAIN  54  52  93 S12       29.73F                  
LAWRENCE       LGT RAIN  52  51  97 S8        29.73F                  
BEDFORD        LGT RAIN  53  50  89 S13       29.72F                  
BLUE HILL        N/A     54  54 100 S24G36    29.74F                  
NORWOOD        LGT RAIN  59  54  83 S9        29.74F                  
MARSHFIELD     LGT RAIN  59  59 100 S15G21    29.79F                  
PLYMOUTH       HVY RAIN  57  56  96 SW13G21   29.80  FOG              
TAUNTON        LGT RAIN  59  56  89 S12G21    29.78F                  
NEW BEDFORD    HVY RAIN  57  57 100 S20G30    29.81F FOG              
$$

MAZALL-100300-
CAPE COD AND THE ISLANDS
  
CITY           SKY/WX    TMP DP  RH WIND       PRES   REMARKS
FALMOUTH       CLOUDY    57  57 100 SW20G30   29.84F FOG              
HYANNIS        LGT RAIN  54  52  93 S15       29.83F FOG              
CHATHAM        HVY RAIN  53  53 100 SW13G26   29.88S FOG              
NANTUCKET      RAIN      53  50  89 S17       29.88F FOG              
MARTHAS VNYRD  RAIN      57  56  96 S21G35    29.83F FOG              
$$
 
MAZALL-100300-
CENTRAL AND WESTERN MASSACHUSETTS
  
CITY           SKY/WX    TMP DP  RH WIND       PRES   REMARKS
WORCESTER      LGT RAIN  50  50 100 SW21G31   29.72F                  
FITCHBURG      NOT AVBL                                               
ORANGE         LGT RAIN  50  47  89 S14       29.70F                  
SPRINGFIELD    LGT RAIN  47  47 100 S10       29.70F FOG              
WESTFIELD      LGT RAIN  47  46  97 S10       29.71F VSB 1            
NORTH ADAMS    RAIN      52  46  80 VRB7      29.67F                  
PITTSFIELD     LGT RAIN  50  46  86 S15G28    29.66F                  
$$
 
RIZALL-100300-
RHODE ISLAND
  
CITY           SKY/WX    TMP DP  RH WIND       PRES   REMARKS
PROVIDENCE     HVY RAIN  57  56  96 S15G22    29.79F FOG              
NEWPORT        LGT RAIN  57  55  93 S17G26    29.80F FOG              
BLOCK ISLAND   LGT RAIN  56  55  97 S23G30    29.80F FOG              
SMITHFIELD     LGT RAIN  54  54 100 SW8       29.77F                  
WESTERLY       LGT RAIN  56  52  86 SW10      29.81F                  
$$
 
CTZALL-100300-
CONNECTICUT
  
CITY           SKY/WX    TMP DP  RH WIND       PRES   REMARKS
BRADLEY INTL   LGT RAIN  49  48  97 S12       29.72F FOG              
HARTFORD       LGT RAIN  54  52  93 S12       29.73F                  
BRIDGEPORT     LGT RAIN  53  52  96 S12       29.76F                  
DANBURY        LGT RAIN  53  51  93 SW8       29.75F                  
GROTON         LGT RAIN  53  53 100 S13       29.78F FOG              
NEW HAVEN      LGT RAIN  56  54  93 SW8       29.76F                  
CHESTER        HVY RAIN  55  55 100 S12G18    29.77F                  
MERIDEN        RAIN      54  52  93 S12G20    29.75F                  
WILLIMANTIC    RAIN      55  54  96 S16G22    29.76F                  
OXFORD         LGT RAIN  52  52 100 S13G22    29.75F FOG              
$$

MEZ002-015-021-024-NHZ003-005-008-011-012-014-VTZ005-008-100300-
NORTHERN NEW ENGLAND
  
CITY           SKY/WX    TMP DP  RH WIND       PRES   REMARKS
PORTLAND ME    LGT RAIN  52  48  86 S14G22    29.73F VSB 1            
BANGOR ME      LGT RAIN  51  50  96 S21G30    29.72F                  
CONCORD NH     LGT RAIN  47  46  97 SE8       29.68F FOG              
MANCHESTER NH  LGT RAIN  50  49  96 S12       29.68F FOG              
NASHUA NH      LGT RAIN  49  49 100 SE5       29.71F FOG              
PORTSMOUTH NH  LGT RAIN  49  48  99 S9        29.70F                  
JAFFREY NH     LGT RAIN  51  48  89 S15G24    29.69F                  
KEENE NH       LGT RAIN  47  46  97 S6        29.67F FOG              
BURLINGTON VT  LGT RAIN  47  43  86 S20G29    29.54F                  
MT. WASHINGTON LGT RAIN  34  34 100 SW41G67     N/A  VSB 0   WCI  18  
$$

NYZ052-076-100300-
EASTERN NEW YORK
  
CITY           SKY/WX    TMP DP  RH WIND       PRES   REMARKS
ALBANY         LGT RAIN  47  42  83 S17G24    29.65F                  
NEW YORK CITY  CLOUDY    56  52  86 SW15G25   29.77F                  
$$
 
ANZALL-100300-
MARINE OBSERVATIONS
  
STATION/POSITION TIME  TEMP    WIND        PRES    VSBY  WAVE
                       AIR SEA DIR/SP/G                  HT/PER
                 (UTC) (F)     (DEG/KT/KT) (MB)    (MI)  (FT/S)
BOSTON BUOY      0150   51 48  160/ 12/ 14 1007.7F         3/ 5
BUZZARDS BAY     0100   54     200/ 21/ 22 1011.1F
NANTUCKET SOUND  0140   50 43              1011.4
MASS BAY-STELLWA 0104   50 46  190/ 16/ 17 1006.9F  1 7/8  5/ 5
ISLE OF SHOALS   0100   50     170/ 26/ 27 1007.3F
S OF BLOCK IS    0200      52                N/A          12/ 9
$$

......................KEY.........................
  SKY/WX - SKY CONDITION/PRESENT WEATHER
  TMP    - TEMPERATURE IN FAHRENHEIT
  DWPT   - DEWPOINT IN FAHRENHEIT
  RH     - RELATIVE HUMIDITY IN PERCENT
  WIND   - DIRECTION AND SPEED IN MPH
  PRES   - MEAN SEA LEVEL PRESSURE IN INCHES OF HG
  WCI    - WIND CHILL INDEX
  VSB    - VISIBILITY IN MILES
  HX     - HEAT INDEX
  TC     - TEMPERATURE IN CELSIUS
  VRB    - VARIABLE WIND DIRECTION
  N/A    - NOT AVAILABLE
  
      

Other recent Regional Weather Roundups

Thu Dec 12, 4:10pm

Thu Dec 12, 4:01pm

Thu Dec 12, 3:10pm

Thu Dec 12, 3:00pm

Thu Dec 12, 2:10pm

Thu Dec 12, 2:01pm

Thu Dec 12, 1:10pm

Thu Dec 12, 1:00pm

Thu Dec 12, 12:10pm

Thu Dec 12, 12:00pm

Thu Dec 12, 11:10am

Thu Dec 12, 11:00am

Thu Dec 12, 10:10am

Thu Dec 12, 8:10am

Thu Dec 12, 8:00am

Thu Dec 12, 7:10am

Thu Dec 12, 7:00am

Thu Dec 12, 6:10am

Thu Dec 12, 6:00am

Thu Dec 12, 5:10am

Thu Dec 12, 5:00am

Thu Dec 12, 4:10am

Thu Dec 12, 4:00am

Thu Dec 12, 3:10am

Thu Dec 12, 3:00am

Thu Dec 12, 2:10am

Thu Dec 12, 2:00am

Thu Dec 12, 1:10am

Thu Dec 12, 1:00am

Thu Dec 12, 12:10am

Thu Dec 12, 12:00am

Wed Dec 11, 11:10pm

Wed Dec 11, 11:00pm

Wed Dec 11, 10:10pm

Wed Dec 11, 10:00pm

Wed Dec 11, 9:10pm

Wed Dec 11, 9:00pm

Wed Dec 11, 8:10pm

Wed Dec 11, 8:00pm

Wed Dec 11, 7:10pm

Wed Dec 11, 7:00pm

Wed Dec 11, 6:10pm

Wed Dec 11, 6:00pm

Wed Dec 11, 5:10pm

Wed Dec 11, 5:01pm

Wed Dec 11, 4:10pm

Wed Dec 11, 4:00pm

Wed Dec 11, 3:10pm

Wed Dec 11, 3:01pm

Wed Dec 11, 2:10pm

Wed Dec 11, 2:00pm

Wed Dec 11, 1:10pm

Wed Dec 11, 1:00pm

Wed Dec 11, 12:10pm

Wed Dec 11, 12:00pm

Wed Dec 11, 11:10am

Wed Dec 11, 11:00am

Wed Dec 11, 10:10am

Wed Dec 11, 10:00am

Wed Dec 11, 9:10am

Wed Dec 11, 9:00am

Wed Dec 11, 8:10am

Wed Dec 11, 8:00am

Wed Dec 11, 7:10am

Wed Dec 11, 7:00am

Wed Dec 11, 6:10am

Wed Dec 11, 6:00am

Wed Dec 11, 5:10am

Wed Dec 11, 5:00am

Wed Dec 11, 4:10am

Wed Dec 11, 4:00am

Wed Dec 11, 3:10am

Wed Dec 11, 3:01am

Wed Dec 11, 2:10am

Wed Dec 11, 2:01am

Wed Dec 11, 1:10am

Wed Dec 11, 1:00am

Wed Dec 11, 12:10am

Wed Dec 11, 12:00am

Tue Dec 10, 11:10pm

Tue Dec 10, 11:00pm

Tue Dec 10, 10:10pm

Tue Dec 10, 10:00pm

Tue Dec 10, 9:10pm

Tue Dec 10, 9:01pm

Tue Dec 10, 8:10pm

Tue Dec 10, 8:00pm

Tue Dec 10, 7:10pm

Tue Dec 10, 7:01pm

Tue Dec 10, 6:10pm

Tue Dec 10, 6:01pm

Tue Dec 10, 5:10pm

Tue Dec 10, 5:00pm

Tue Dec 10, 4:10pm

Tue Dec 10, 4:01pm

Tue Dec 10, 3:10pm

Tue Dec 10, 3:01pm

Tue Dec 10, 2:10pm

Tue Dec 10, 2:01pm

Tue Dec 10, 1:10pm

Tue Dec 10, 1:00pm

Tue Dec 10, 12:10pm

Tue Dec 10, 12:00pm

Tue Dec 10, 11:10am

Tue Dec 10, 11:00am

Tue Dec 10, 10:10am

Tue Dec 10, 10:00am

Tue Dec 10, 9:10am

Tue Dec 10, 9:01am

Tue Dec 10, 8:10am

Tue Dec 10, 8:00am

Tue Dec 10, 7:10am

Tue Dec 10, 7:00am

Tue Dec 10, 6:10am

Tue Dec 10, 6:00am

Tue Dec 10, 5:10am

Tue Dec 10, 5:00am

Tue Dec 10, 4:10am

Tue Dec 10, 4:00am

Tue Dec 10, 3:10am

Tue Dec 10, 3:00am

Tue Dec 10, 2:10am

Tue Dec 10, 2:01am

Tue Dec 10, 1:10am

Tue Dec 10, 1:00am

Tue Dec 10, 12:10am

Tue Dec 10, 12:01am

Mon Dec 9, 11:10pm

Mon Dec 9, 11:01pm

Mon Dec 9, 10:10pm

Mon Dec 9, 10:00pm

Mon Dec 9, 9:01pm

Mon Dec 9, 8:10pm

Mon Dec 9, 8:01pm

Mon Dec 9, 7:10pm

Mon Dec 9, 7:00pm

Mon Dec 9, 6:10pm

Mon Dec 9, 6:00pm

Mon Dec 9, 5:10pm

Mon Dec 9, 5:01pm

Meta data:

ID: 1b7a3fb5-804a-4384-bef5-489959fced41
Link: https://api.weather.gov/products/1b7a3fb5-804a-4384-bef5-489959fced41